#timestamp,LO_Frequency,Hit 
1501930815.3,286046999.0,N
1501930835.2,286046997.1,N
1501930855.0,286046998.8,N
1501930855.9,286046998.8,N
1501930875.7,286046994.9,N
1501930895.6,286046997.1,N
1501930915.4,286046997.6,N
1501930935.2,286046996.0,N
1501930955.1,286046993.6,N
1501930956.0,286046993.6,N
1501930975.8,286046990.2,N
1501930995.6,286046989.3,N
1501931015.5,286046985.3,N
1501931035.3,286046983.7,N
1501931055.1,286046988.4,N
1501931075.9,286046988.1,N
1501931095.7,286046988.4,N
1501931115.5,286046986.6,N
1501931135.4,286046987.8,N
1501931155.2,286046988.9,N
1501931175.0,286046992.4,N
1501931175.9,286046992.4,N
1501931195.7,286046994.1,N
1501931215.6,286046992.2,N
1501931235.4,286046993.0,N
1501931255.2,286046991.5,N
1501931275.1,286046987.1,N
1501931276.0,286046987.1,N
1501931295.8,286046987.4,N
1501931315.6,286046991.1,N
1501931335.5,286046990.0,N
1501931355.3,286046991.4,N
1501931375.1,286046990.1,N
1501931395.9,286046990.5,N
1501931415.7,286046989.4,P
1501931435.5,286046996.8,P
1501931455.4,286046996.8,N
1501931475.2,286046997.9,N
1501931495.0,286046996.2,N
1501931495.9,286046996.2,N
1501931515.8,286046998.2,N
1501931535.6,286047000.1,N
1501931555.4,286047005.0,N
1501931575.3,286047007.5,N
1501931595.1,286047010.6,N
1501931596.0,286047010.6,N
1501931615.8,286047010.4,N
1501931635.7,286047013.5,N
1501931655.5,286047010.0,N
1501931675.3,286047009.1,N
1501931695.1,286047006.1,N
1501931715.9,286047009.7,N
1501931735.7,286047009.5,N
1501931755.5,286047009.4,N
1501931775.4,286047008.7,N
1501931795.2,286047009.0,N
1501931815.0,286047007.1,N
1501931815.9,286047007.1,N
1501931835.8,286047003.4,N
1501931855.6,286047005.4,N
1501931875.4,286047006.7,N
1501931895.3,286047005.5,N
1501931915.1,286047003.2,N
1501931916.0,286047003.2,N
1501931935.8,286047002.4,N
1501931955.7,286046998.9,N
1501931975.5,286047001.9,N
1501931995.3,286047007.0,N
1501932015.2,286047005.3,N
1501932035.9,286047004.6,N
1501932055.7,286047001.7,N
1501932075.5,286047002.3,N
1501932095.4,286047001.9,N
1501932115.2,286047000.9,N
1501932135.0,286046998.0,N
1501932135.9,286046998.0,N
1501932155.8,286046993.8,N
1501932175.6,286046993.9,N
1501932195.5,286046995.8,N
1501932215.3,286046997.3,N
1501932235.2,286047001.2,N
1501932255.9,286046998.5,N
1501932275.7,286046998.4,N
1501932295.5,286047000.4,N
1501932315.4,286047000.0,N
1501932335.2,286047000.0,N
1501932355.0,286047002.4,N
1501932355.9,286047002.4,N
1501932375.8,286047004.3,N
1501932395.6,286047005.5,N
1501932415.4,286047004.6,N
1501932435.3,286047005.7,N
1501932455.1,286047004.8,N
1501932456.0,286047004.8,N
1501932475.8,286047006.2,N
1501932495.7,286047010.3,N
1501932515.5,286047009.2,N
1501932535.3,286047005.2,N
1501932555.2,286047003.3,N
1501932575.9,286047005.5,N
1501932595.7,286047004.5,N
1501932615.6,286047003.9,N
1501932635.4,286047000.6,N
1501932655.2,286046998.7,N
1501932675.0,286046994.9,N
1501932675.9,286046994.9,N
1501932695.8,286046995.5,N
1501932715.6,286046996.4,N
1501932735.4,286046996.3,N
1501932755.3,286046993.7,N
1501932775.1,286046992.2,N
1501932795.8,286046992.6,N
1501932815.7,286046994.7,N
1501932835.5,286046995.9,N
1501932855.3,286046994.8,N
1501932875.2,286046991.7,N
1501932895.9,286046993.9,N
1501932915.7,286046996.5,N
1501932935.6,286046997.3,N
1501932955.4,286046998.4,N
1501932975.2,286047000.3,N
1501932995.1,286047000.7,N
1501932996.0,286047000.7,N
1501933015.8,286047000.2,N
1501933035.6,286046997.0,N
1501933055.5,286046997.4,N
1501933075.3,286047000.5,N
1501933095.1,286046998.1,N
1501933115.9,286047001.2,N
1501933135.7,286047001.6,N
1501933155.5,286047002.0,N
1501933175.4,286047002.2,N
1501933195.2,286046998.6,N
1501933215.0,286046995.9,N
1501933215.9,286046995.9,N
1501933235.7,286046994.4,N
1501933255.6,286047000.4,N
1501933275.4,286047002.9,N
1501933295.2,286047006.7,N
1501933315.1,286047007.7,N
1501933316.0,286047007.7,N
1501933335.8,286047012.3,P
1501933355.7,286047009.8,N
1501933375.5,286047012.7,N
1501933395.3,286047016.8,N
1501933415.1,286047016.9,N
1501933435.9,286047017.9,N
1501933455.7,286047018.5,P
1501933475.5,286047008.5,N
1501933495.4,286047009.1,N
1501933515.2,286047005.8,N
1501933535.0,286046999.7,N
1501933535.9,286046999.7,N
1501933555.8,286047001.0,N
1501933575.6,286046999.3,N
1501933595.4,286046995.6,N
1501933615.3,286046992.2,N
1501933635.1,286046994.5,N
1501933636.0,286046994.5,N
1501933655.8,286046995.5,N
1501933675.7,286046993.5,N
1501933695.5,286046992.3,N
1501933715.3,286046993.2,N
1501933735.2,286046991.9,N
1501933755.9,286046993.2,N
1501933775.7,286046990.1,N
1501933795.6,286046991.6,N
1501933815.4,286046990.3,N
1501933835.2,286046989.9,N
1501933855.0,286046991.0,N
1501933855.9,286046991.0,N
1501933875.8,286046992.8,N
1501933895.6,286046992.5,N
1501933915.4,286046996.2,N
1501933935.3,286046990.4,N
1501933955.1,286046991.3,N
1501933975.8,286046988.8,N
1501933995.7,286046991.9,N
1501934015.5,286046992.7,N
1501934035.3,286046988.9,N
1501934055.2,286046991.1,N
1501934075.9,286046989.4,P
1501934095.7,286046997.8,N
1501934115.6,286046994.9,N
1501934135.4,286046994.5,N
1501934155.2,286046992.4,N
1501934175.1,286046990.5,P
1501934176.0,286046990.5,P
1501934195.8,286046997.3,N
1501934215.6,286046997.1,N
1501934235.5,286046996.8,N
1501934255.3,286046996.1,N
1501934275.1,286046994.5,N
1501934295.9,286046992.2,N
1501934315.7,286046990.2,P
1501934335.5,286046996.8,N
1501934355.4,286046998.5,N
1501934375.2,286047000.3,N
1501934395.0,286047002.3,N
1501934395.9,286047002.3,N
